Retour au catalogue

THORAD AGENA D DEB

ActifLEO
NORAD 4819·DEBRIS·🇺🇸 United States

Lancé Apr 8, 1970 depuis Vandenberg Space Force Base

Loading…

Prochains Passages

TLE

Source: Space-Track
1  4819U 70025EA  26221.61971534  .00002484  00000-0  81060-3 0  9991
2  4819 100.1030 251.7165 0031366 120.8126 239.6150 14.39488436851858

Suivez THORAD AGENA D DEB en temps réel avec AllMySat

Download on the App Store